Temperature
23 24 25 25 25 25 23 21 21 21 21 21 20 20 20 21 21 20 20 20 20 20 19 19 19 19 19 18 18 18 18 18 17 17 17 17 17 17 17 16 16 16 16 16
23 24 25 25 25 25 25 23 22 22 21 20 21 21 20 20 20 20 20 20 19 19 19 19 19 18 18 18 18 18 17 17 17 17 17 17 16 16 16 16 16 16 16 15
21 22 23 23 23 24 23 23 22 21 20 20 19 19 20 20 20 20 20 20 19 19 19 19 18 18 18 18 17 17 17 17 17 17 16 16 16 16 16 16 15 15 15 15
19 21 22 22 22 24 23 22 22 21 20 20 20 20 20 20 20 20 19 19 19 19 18 18 18 18 18 17 17 17 17 17 16 16 16 16 16 16 16 15 15 15 15 15
18 20 21 22 23 23 21 21 21 20 20 20 20 19 19 20 20 19 19 19 19 18 18 18 18 18 17 17 17 16 16 16 16 16 16 16 16 16 15 15 15 15 15 14
18 20 20 21 22 23 21 19 20 20 19 19 19 17 17 19 19 19 18 18 18 18 18 17 17 17 17 17 16 16 16 16 16 15 15 15 15 15 15 15 14 14 14 14
18 19 19 20 22 22 20 19 20 20 20 19 18 18 19 19 19 18 18 18 18 18 17 17 17 17 16 16 16 16 15 15 15 15 15 15 15 14 14 14 14 14 14 14
17 18 18 20 21 19 18 19 20 20 20 19 19 19 19 18 18 18 18 17 17 17 17 16 16 16 16 16 16 15 15 15 15 15 15 15 14 14 14 14 14 14 13 13
16 17 18 20 20 21 21 20 20 20 20 19 19 18 18 17 17 17 17 17 17 16 16 16 16 16 16 15 15 15 15 14 14 14 14 14 14 14 14 14 13 13 13 13
16 17 18 20 20 20 20 20 20 20 19 19 18 18 17 17 17 17 17 16 16 16 16 15 15 15 15 15 15 15 14 14 14 14 14 14 14 14 14 13 13 13 13 13
16 17 18 19 20 20 20 20 20 19 19 19 18 18 17 17 17 16 16 16 16 16 15 15 15 15 15 15 15 14 14 14 14 14 14 14 14 13 13 13 13 13 13 13
16 17 17 18 19 19 19 19 19 19 18 18 18 17 17 16 16 16 16 15 15 15 15 15 15 15 15 14 14 14 14 14 14 14 14 13 13 13 13 13 13 13 13 12
19 19 19 19 19 19 19 18 18 18 18 17 17 17 17 16 16 16 15 15 15 15 15 15 15 14 14 14 14 14 14 14 13 13 13 13 13 13 13 13 12 12 12 12
19 19 18 18 18 18 18 18 18 18 17 17 17 16 16 16 15 15 15 15 15 14 14 14 14 14 14 14 14 14 13 13 13 13 13 13 13 13 13 12 12 12 12 12
19 19 18 18 18 18 18 17 17 17 17 16 16 16 16 15 15 15 14 14 14 14 14 14 14 14 14 13 13 13 13 13 13 13 13 13 13 12 12 12 12 12 11 11
18 18 18 18 17 17 17 17 17 16 16 16 16 16 15 15 15 15 14 14 14 14 14 14 13 13 13 13 13 13 13 13 13 13 12 12 12 12 12 12 11 11 11 11
17 17 17 17 17 17 16 16 16 16 16 15 15 15 15 15 15 14 14 14 14 14 14 13 13 13 13 13 13 13 13 12 12 12 12 12 12 12 11 11 11 11 11 11
18 18 17 17 16 16 16 16 16 15 15 15 15 15 14 14 14 14 14 14 13 13 13 13 13 13 13 13 13 13 12 12 12 12 12 12 11 11 11 11 11 11 11 10
17 17 17 17 16 16 16 15 15 15 15 14 14 14 14 14 14 13 13 13 13 13 13 13 13 13 13 13 13 12 12 12 12 12 11 11 11 11 11 11 11 10 10 10
17 17 16 16 16 16 15 15 15 14 14 14 14 14 13 13 13 13 13 13 13 13 13 13 13 13 12 12 12 12 12 12 12 12 11 11 11 11 11 11 10 10 10 10
16 16 16 16 15 15 15 15 15 14 14 14 13 13 13 13 13 12 12 12 12 12 12 12 12 12 12 12 12 12 12 12 12 12 11 11 11 11 11 10 10 10 10 9
16 16 15 15 15 15 14 14 14 14 14 13 13 13 13 12 12 12 12 12 12 12 12 12 12 12 12 12 12 12 12 12 11 11 11 11 11 11 10 10 10 10 9 9
15 15 15 15 14 14 14 14 14 14 13 13 13 13 12 12 12 12 12 12 12 12 12 12 12 12 12 12 12 12 11 11 11 11 11 11 10 10 10 10 9 9 9 9
15 15 14 14 14 14 13 13 13 13 13 13 12 12 12 12 12 12 12 12 11 11 11 11 12 12 12 11 11 11 11 11 11 11 11 10 10 10 9 9 9 9 9 9
14 14 14 14 13 13 13 13 13 13 12 12 12 12 12 12 12 12 11 11 11 11 11 11 11 11 11 11 11 11 10 10 10 10 10 10 9 9 9 9 9 9 9 8
14 14 14 13 13 13 13 13 12 12 12 12 12 12 12 12 11 11 11 11 11 11 11 11 11 11 11 10 10 10 10 10 10 10 9 9 9 9 9 9 8 8 8 8
13 13 13 13 13 13 13 12 12 12 12 12 12 12 11 11 11 11 11 11 11 11 11 11 11 10 10 10 10 10 10 9 9 9 9 9 9 9 8 8 8 8 8 8
Wind_Speed
4 4 2 3 4 1 2 5 6 7 7 8 7 6 5 6 7 8 6 6 7 6 4 3 3 3 3 3 3 4 4 4 4 3 3 3 2 2 2 2 2 2 2 1
3 3 3 4 4 2 1 2 4 5 3 5 4 5 5 5 6 7 7 7 5 6 5 4 4 3 3 2 2 3 4 3 2 2 2 2 3 2 2 2 2 2 2 1
3 5 4 3 4 0 2 3 6 5 5 4 5 7 7 6 6 6 7 6 6 5 5 5 5 4 3 2 2 3 3 2 2 2 2 2 2 2 2 2 2 2 2 1
1 4 1 6 3 3 5 2 2 3 4 6 7 5 4 6 6 6 5 6 6 5 5 4 5 5 4 3 3 2 2 2 2 2 2 2 2 2 1 2 3 2 2 2
3 1 4 5 4 2 4 3 3 6 5 5 7 6 3 2 5 5 4 4 4 5 5 4 4 4 4 3 2 2 1 1 2 3 2 2 2 2 2 2 1 2 2 2
4 3 4 4 4 2 7 1 3 5 7 7 7 3 3 2 5 4 3 3 4 4 5 4 3 4 4 3 2 1 1 2 2 2 3 2 2 2 2 2 2 2 1 1
3 3 5 5 4 4 3 4 2 3 6 6 3 5 5 5 4 4 3 4 4 5 5 4 4 5 4 2 2 2 1 1 1 2 3 3 2 2 2 2 2 2 1 1
3 3 6 5 3 3 4 2 2 3 3 4 4 5 4 5 4 4 3 3 4 5 4 3 4 5 3 2 2 1 1 1 1 1 2 2 2 2 2 2 2 1 1 1
6 6 6 2 3 4 5 5 2 3 4 6 6 5 4 3 2 2 2 2 3 4 3 2 2 4 4 2 1 2 1 1 1 1 1 2 3 3 2 2 2 2 2 2
1 1 1 1 2 2 3 4 3 4 5 6 7 6 5 4 2 1 2 2 2 4 3 2 1 2 3 2 2 2 2 1 1 2 2 2 2 2 3 3 3 3 3 3
1 2 1 1 1 2 3 5 5 4 4 5 7 5 4 3 3 2 1 1 2 3 3 2 2 2 2 2 2 2 2 2 2 2 2 2 2 2 3 3 5 5 4 4
5 6 5 4 2 2 4 4 4 5 4 4 5 5 4 3 3 3 3 2 2 2 2 2 2 1 1 1 2 2 2 2 2 2 2 2 2 1 1 1 3 5 5 4
5 4 4 4 2 2 3 3 4 5 4 4 4 5 4 2 2 2 2 2 2 2 2 2 1 1 1 1 2 2 2 2 2 2 2 2 2 2 1 2 2 1 2 3
3 4 3 2 2 3 4 4 4 4 3 4 4 4 4 3 2 2 2 3 2 2 2 2 2 2 3 2 2 2 2 2 2 2 2 2 2 2 2 2 1 1 1 2
2 4 5 4 4 4 4 5 6 4 3 2 3 4 4 4 2 2 2 3 2 1 1 1 1 3 2 2 2 2 2 2 1 2 2 2 2 2 2 2 2 0 1 2
4 4 5 6 5 4 4 5 5 3 2 3 3 3 4 4 3 3 3 3 2 2 2 2 2 3 2 2 2 2 2 1 2 2 1 1 2 2 2 2 2 1 1 0
6 5 5 5 4 3 4 4 4 4 3 4 3 3 3 3 2 1 1 1 2 2 3 3 3 3 1 1 2 1 1 1 1 2 2 2 2 2 2 3 3 2 2 2
8 8 8 7 6 4 4 4 4 5 4 4 4 3 3 2 2 1 1 0 0 1 2 3 3 2 1 1 2 1 1 2 2 2 2 2 2 2 2 3 3 2 1 1
6 6 6 6 6 5 4 3 3 4 4 4 3 2 2 2 2 2 1 1 1 2 4 3 3 2 2 3 2 2 2 2 2 2 2 2 2 1 2 2 2 2 2 2
5 6 6 5 5 5 5 4 4 3 3 3 3 2 1 2 2 2 1 2 3 4 4 2 1 2 2 3 2 2 2 2 3 2 2 2 2 2 2 2 2 2 2 2
6 6 7 6 5 4 4 3 4 3 2 3 3 2 2 2 2 2 1 2 4 4 3 3 2 2 2 2 2 2 3 2 2 3 3 3 3 2 3 3 2 2 2 2
5 6 6 5 4 3 2 2 3 3 2 1 1 2 1 1 1 1 2 3 4 3 2 2 2 3 2 2 1 2 2 2 2 2 2 2 2 2 2 2 2 2 2 2
5 5 5 5 4 3 2 1 2 2 1 2 2 2 2 3 2 2 2 3 2 2 2 2 3 4 3 1 1 2 2 2 2 3 2 2 2 2 2 2 2 2 2 2
5 5 4 4 4 4 2 1 1 1 2 2 2 3 3 2 2 3 3 4 4 3 1 2 2 2 2 2 2 2 2 2 2 2 2 2 2 2 2 2 2 2 2 3
5 4 4 4 3 2 2 1 0 0 1 1 1 2 2 3 3 3 3 3 4 3 1 2 1 1 1 1 1 2 2 2 3 3 2 2 2 2 2 2 2 2 2 2
3 3 3 3 3 2 1 1 0 0 0 1 2 1 1 1 2 2 2 2 2 2 1 1 1 1 1 1 2 2 3 3 3 2 2 3 3 2 2 1 2 2 2 2
2 2 2 1 0 1 1 1 1 1 1 1 1 1 1 1 1 1 1 1 1 1 1 1 1 2 2 2 2 2 2 2 2 2 2 2 2 2 2 2 2 2 2 2
Wind_Direction
224 239 288 292 308 341 159 181 180 202 193 208 190 166 155 142 130 123 125 127 139 142 139 129 120 121 122 130 149 149 149 162 186 190 185 185 187 197 192 182 185 173 146 145
342 340 5 335 323 329 342 139 142 138 209 207 169 130 130 143 141 138 143 145 146 145 142 141 139 137 129 117 128 138 145 167 185 177 175 182 189 190 181 179 176 142 144 147
295 318 21 321 282 248 104 136 146 175 207 162 144 150 158 154 148 153 155 151 148 156 162 159 156 148 139 141 122 110 126 143 153 161 167 184 181 154 164 180 163 155 166 165
89 35 261 252 279 110 101 69 93 125 148 158 154 149 143 148 144 141 142 150 154 161 163 160 151 148 142 135 129 135 147 155 163 151 166 169 146 152 166 158 162 168 178 190
114 128 282 302 328 65 94 15 62 110 113 113 104 77 46 100 121 140 147 149 156 163 162 154 148 151 140 131 126 124 161 186 181 165 156 158 167 183 184 162 171 184 181 183
123 149 225 265 313 60 92 13 327 114 127 132 105 110 232 177 117 122 124 129 127 128 123 126 132 125 117 118 123 163 219 213 193 170 166 181 190 194 195 171 190 198 215 215
151 191 250 272 304 39 99 221 259 116 130 139 154 188 182 151 131 130 127 124 117 118 123 136 133 121 124 134 177 209 213 212 200 191 185 187 187 195 190 183 181 188 206 243
145 172 245 290 50 122 190 185 126 115 134 123 114 110 119 124 118 107 98 102 117 123 131 140 133 129 137 185 217 186 166 175 210 228 195 169 163 179 184 178 177 192 209 281
176 206 235 259 156 169 154 145 160 158 153 132 124 124 123 115 122 120 107 102 128 133 134 133 140 146 162 214 203 153 147 192 232 240 229 201 184 190 194 188 190 209 212 237
79 268 256 51 78 101 140 148 164 153 142 140 136 143 141 141 145 115 101 109 128 129 136 153 169 171 185 187 166 157 176 221 243 226 228 231 207 193 192 202 201 206 211 219
181 233 56 22 90 111 89 97 104 110 125 140 138 142 144 149 153 145 111 115 134 145 157 182 189 200 205 178 155 173 199 216 230 237 224 225 229 217 201 207 195 193 205 199
216 217 177 211 225 124 105 103 119 118 109 125 135 136 135 146 163 158 152 135 124 146 172 190 176 199 219 179 165 180 221 231 227 222 212 203 204 283 30 177 185 175 170 169
194 192 167 171 164 125 122 120 118 127 131 133 139 141 139 151 172 160 160 164 173 183 188 196 182 201 236 211 175 182 220 234 235 221 207 197 191 181 171 2 24 153 170 167
138 112 108 142 153 118 107 96 97 98 109 126 137 133 128 121 128 145 169 190 190 179 183 189 198 230 237 215 193 197 212 222 206 212 206 195 190 179 168 164 148 341 307 232
159 149 162 155 122 111 107 95 87 79 83 96 121 128 132 131 143 177 181 169 151 143 188 202 226 259 250 211 193 201 199 203 203 199 188 177 169 161 163 162 156 138 20 359
156 124 124 124 127 127 116 107 103 103 107 106 113 132 143 146 156 167 169 158 155 214 233 212 241 257 243 201 196 208 215 203 184 173 159 152 156 157 167 169 159 149 163 229
140 144 143 142 142 135 131 130 128 131 120 118 130 132 126 130 133 142 160 178 178 215 221 212 233 243 224 197 190 203 204 209 135 129 151 154 156 168 171 168 170 181 208 199
175 170 166 163 157 141 130 123 122 125 133 132 125 110 112 133 161 191 208 168 68 295 271 238 226 213 213 210 201 200 174 173 168 162 166 161 168 182 177 175 181 186 197 179
150 146 145 142 140 139 139 138 135 131 130 125 125 140 156 174 180 190 191 159 190 250 266 257 231 207 218 223 187 178 180 174 163 166 182 181 181 189 180 175 179 187 186 168
120 130 129 127 126 130 132 132 131 127 132 131 128 135 149 202 203 208 210 228 239 236 238 235 227 220 226 228 195 178 187 197 196 189 177 172 185 198 197 193 192 198 192 191
121 121 120 118 119 122 129 132 134 141 151 146 149 175 200 220 209 194 203 260 272 255 235 225 214 238 238 234 211 188 194 199 202 202 193 196 205 212 210 205 199 192 190 196
122 123 121 119 115 110 110 118 129 135 140 154 171 185 184 196 190 204 225 229 244 244 234 240 239 238 232 223 176 171 184 189 196 196 189 194 189 189 199 204 200 195 187 185
131 131 129 127 131 131 102 104 132 141 166 190 198 208 215 220 203 192 255 259 237 239 235 243 247 240 219 200 181 178 174 170 167 167 164 167 173 171 179 189 196 190 182 179
132 132 135 133 122 111 113 178 205 213 218 219 220 212 195 198 234 232 225 231 227 235 234 253 255 228 185 165 156 153 150 150 159 156 151 153 151 155 168 180 186 189 187 182
132 133 131 124 128 155 188 190 266 287 238 246 264 243 209 193 206 231 224 225 230 231 244 256 235 198 175 154 165 157 159 165 163 157 162 165 169 170 175 176 175 180 189 190
129 143 153 161 168 176 179 151 154 213 176 270 298 291 251 221 209 205 206 223 229 227 239 232 183 170 166 177 173 170 173 175 170 164 170 174 170 168 171 182 191 194 193 189
126 133 129 116 140 176 169 169 187 215 214 206 253 262 246 228 184 166 171 179 185 181 173 164 161 165 164 166 164 159 165 171 168 166 167 172 168 167 183 192 199 197 189 186
Height
1498 1493 1492 1493 1492 1492 1498 1505 1513 1511 1509 1504 1500 1500 1501 1502 1503 1504 1506 1507 1508 1509 1510 1511 1512 1512 1512 1513 1514 1515 1515 1515 1515 1515 1515 1516 1515 1515 1516 1516 1516 1516 1516 1516
1499 1492 1491 1493 1490 1490 1492 1494 1499 1502 1505 1497 1498 1500 1501 1502 1503 1503 1505 1506 1508 1509 1509 1510 1510 1511 1511 1512 1513 1513 1513 1513 1514 1514 1514 1513 1513 1513 1513 1513 1514 1513 1513 1513
1510 1498 1496 1504 1494 1491 1492 1491 1495 1503 1501 1497 1498 1499 1499 1500 1501 1502 1504 1505 1507 1508 1508 1508 1509 1509 1510 1511 1511 1511 1511 1511 1511 1511 1511 1511 1511 1511 1511 1511 1511 1511 1511 1511
1513 1508 1517 1504 1486 1485 1489 1491 1490 1492 1494 1494 1495 1497 1498 1499 1499 1502 1503 1504 1506 1507 1507 1507 1508 1508 1509 1509 1510 1509 1509 1508 1508 1508 1508 1509 1508 1508 1508 1507 1507 1508 1508 1508
1517 1519 1512 1497 1488 1488 1493 1498 1493 1493 1494 1496 1497 1498 1500 1500 1500 1501 1502 1503 1504 1505 1506 1506 1506 1506 1507 1507 1507 1507 1506 1505 1505 1505 1505 1505 1506 1505 1505 1505 1505 1505 1506 1506
1514 1517 1519 1504 1489 1486 1490 1503 1495 1493 1495 1496 1497 1504 1504 1501 1501 1502 1502 1502 1503 1504 1504 1505 1504 1505 1505 1505 1505 1505 1505 1504 1503 1503 1503 1503 1503 1503 1503 1503 1503 1503 1503 1504
1512 1515 1509 1494 1488 1487 1504 1506 1496 1494 1494 1495 1496 1498 1499 1500 1500 1501 1501 1501 1502 1502 1502 1503 1503 1503 1503 1503 1503 1503 1503 1502 1502 1502 1501 1501 1501 1501 1501 1501 1501 1501 1501 1502
1513 1517 1513 1490 1488 1494 1497 1493 1494 1493 1494 1495 1495 1497 1498 1498 1498 1498 1499 1500 1500 1500 1501 1501 1501 1502 1502 1501 1501 1502 1502 1501 1500 1500 1499 1499 1499 1499 1500 1500 1500 1499 1499 1499
1503 1504 1493 1489 1489 1490 1490 1492 1493 1493 1493 1494 1495 1496 1497 1498 1498 1498 1499 1499 1499 1499 1499 1500 1500 1500 1500 1500 1500 1500 1499 1499 1498 1498 1498 1497 1497 1497 1497 1498 1498 1498 1497 1497
1496 1493 1490 1489 1489 1490 1490 1490 1491 1492 1492 1493 1493 1495 1496 1498 1498 1497 1497 1498 1498 1498 1498 1498 1498 1498 1498 1498 1498 1498 1497 1497 1497 1496 1496 1496 1496 1496 1496 1496 1496 1496 1495 1495
1495 1492 1491 1490 1489 1490 1490 1490 1490 1491 1491 1492 1493 1494 1495 1496 1496 1496 1496 1497 1497 1497 1497 1496 1497 1496 1496 1496 1496 1496 1495 1495 1494 1494 1494 1494 1494 1494 1494 1494 1494 1494 1493 1493
1494 1489 1490 1490 1490 1490 1490 1490 1490 1490 1491 1492 1492 1492 1493 1494 1494 1494 1495 1495 1495 1496 1495 1495 1495 1495 1495 1494 1494 1494 1493 1493 1492 1492 1492 1492 1492 1492 1492 1492 1492 1492 1492 1492
1485 1486 1487 1488 1489 1489 1489 1489 1490 1490 1491 1491 1492 1492 1492 1492 1492 1492 1493 1493 1493 1494 1494 1493 1493 1493 1493 1493 1492 1491 1491 1490 1490 1490 1490 1490 1490 1490 1490 1490 1490 1490 1490 1489
1483 1484 1486 1487 1488 1488 1489 1489 1489 1489 1490 1490 1490 1491 1490 1490 1490 1490 1490 1491 1492 1492 1492 1491 1491 1490 1490 1490 1490 1489 1488 1488 1488 1488 1488 1488 1488 1488 1488 1488 1487 1487 1487 1487
1482 1483 1484 1485 1487 1488 1488 1488 1488 1488 1488 1489 1489 1489 1489 1489 1489 1489 1490 1490 1490 1490 1490 1489 1489 1489 1489 1488 1487 1487 1486 1486 1485 1485 1485 1486 1486 1486 1487 1487 1486 1486 1485 1485
1481 1482 1483 1484 1486 1486 1487 1487 1486 1487 1487 1488 1488 1488 1488 1488 1488 1488 1488 1489 1489 1488 1488 1487 1486 1487 1487 1486 1485 1484 1484 1484 1483 1483 1483 1484 1484 1484 1484 1484 1484 1484 1483 1483
1479 1481 1482 1483 1484 1485 1485 1486 1485 1486 1486 1486 1487 1487 1486 1487 1487 1487 1487 1487 1486 1486 1486 1485 1485 1484 1484 1484 1483 1482 1482 1482 1481 1481 1481 1482 1482 1482 1482 1482 1482 1481 1481 1481
1477 1478 1480 1481 1482 1483 1484 1485 1485 1485 1485 1485 1485 1485 1485 1485 1485 1485 1485 1484 1484 1484 1484 1483 1483 1483 1483 1482 1481 1481 1480 1480 1480 1480 1480 1480 1480 1480 1480 1480 1480 1479 1479 1478
1476 1477 1479 1480 1481 1482 1482 1483 1484 1484 1485 1485 1484 1484 1484 1484 1484 1483 1483 1483 1482 1482 1481 1481 1481 1481 1480 1480 1480 1480 1479 1479 1479 1478 1478 1478 1478 1478 1478 1478 1477 1477 1477 1476
1475 1477 1478 1479 1480 1481 1482 1482 1482 1483 1484 1484 1483 1483 1482 1482 1482 1482 1481 1480 1480 1480 1479 1479 1478 1478 1478 1478 1479 1478 1478 1478 1477 1476 1476 1475 1475 1476 1476 1475 1475 1474 1474 1473
1475 1476 1477 1478 1479 1480 1481 1481 1481 1481 1482 1482 1482 1481 1481 1480 1480 1480 1479 1478 1478 1478 1477 1477 1476 1476 1476 1476 1476 1476 1476 1475 1475 1474 1473 1473 1473 1473 1473 1473 1472 1472 1471 1471
1474 1475 1476 1477 1478 1478 1479 1479 1480 1480 1480 1480 1479 1479 1478 1478 1477 1477 1476 1476 1475 1475 1475 1474 1474 1474 1474 1474 1474 1474 1473 1473 1472 1471 1471 1471 1470 1470 1470 1470 1470 1469 1469 1468
1474 1475 1475 1476 1477 1477 1478 1478 1479 1479 1478 1478 1477 1477 1476 1475 1475 1474 1473 1473 1472 1472 1472 1472 1472 1472 1472 1472 1471 1471 1470 1470 1469 1468 1468 1468 1468 1467 1467 1467 1467 1467 1466 1466
1473 1474 1475 1476 1476 1477 1477 1477 1477 1477 1476 1476 1475 1475 1474 1473 1473 1472 1472 1471 1470 1470 1469 1469 1469 1469 1469 1469 1469 1468 1467 1467 1466 1466 1465 1465 1465 1464 1464 1464 1464 1464 1464 1464
1472 1473 1474 1475 1475 1475 1475 1475 1475 1475 1474 1473 1473 1472 1472 1471 1471 1470 1470 1469 1469 1468 1468 1467 1467 1467 1467 1467 1466 1466 1465 1464 1464 1464 1464 1463 1463 1462 1462 1462 1462 1462 1462 1461
1472 1473 1473 1474 1474 1474 1474 1474 1473 1473 1472 1471 1470 1470 1470 1469 1469 1468 1468 1468 1467 1467 1466 1465 1465 1465 1465 1464 1464 1464 1463 1463 1463 1462 1462 1462 1461 1460 1460 1460 1460 1460 1459 1459
1471 1472 1472 1473 1473 1473 1473 1472 1472 1471 1470 1470 1469 1468 1468 1467 1467 1466 1466 1466 1465 1465 1464 1464 1464 1463 1463 1463 1462 1462 1462 1461 1461 1461 1460 1460 1459 1458 1458 1458 1458 1457 1456 1456